Location: Newark
(39.0622°N, 106.5590°E)
Time: 00:05:54
(UTC+00:00)

Vanguard 2 Rocket - Pass Details

Date: 30 January 2020
Orbit: 553 x 3327 km, 32.9° (Epoch: 24 February)

Event Time Altitude Azimuth Distance (km) Brightness Sun altitude
Rises 03:00:06 0° 259° (WSW) 3,849 9.9 25.8°
Reaches altitude 10° 03:03:58 10° 235° (SW) 3,333 9.9 26.3°
Maximum altitude 03:08:21 15° 204° (SSW) 3,456 10.5 26.7°
Drops below altitude 10° 03:13:55 10° 175° (S) 4,436 11.6 27.3°
Sets 03:20:47 0° 156° (SSE) 6,101 12.4 27.9°
